Location: Hilton Head Island
(32.2163°N, 80.7526°W)
Time: 20:31:20
(UTC-04:00)

Vanguard 2 Rocket - Pass Details

Date: 25 February 2026
Orbit: 553 x 3286 km, 32.9° (Epoch: 10 March)

Event Time Altitude Azimuth Distance (km) Brightness Sun altitude
Rises 18:29:39 0° 281° (W) 6,105 12.8 -3.4°
Reaches altitude 10° 18:36:16 10° 263° (W) 4,472 12.4 -4.7°
Maximum altitude 18:42:19 16° 232° (SW) 3,376 10.8 -6.0°
Drops below altitude 10° 18:47:01 10° 198° (SSW) 3,280 10.1 -7.0°
Sets 18:50:43 0° 175° (S) 3,810 10.1 -7.8°
